[[{"header":{"parameterUnit":"m.s-1","parameterCategory":1,"la1":30.2991,"la2":30.254,"lo1":-89.0895,"lo2":-89.0444,"dy":0.0017,"dx":0.0017,"nx":28,"ny":28,"refTime":"2024-10-14T21:00:00:Z","depth":0,"parameterNumber":2,"parameterNumberName":"U-component_of_WINDS"},"data":[0,0,0,0,0,0,0,0,0,0,0,0,0,0,0,0,0,0,0,0,0,0,0,0,0,0,0,0,0,0,0,0,0,0,0,0,0,0,0,0,0,0,0,0,0,0,0,0,0,0,0,0,0,0,0,0,0,0,2.5266,2.5266,0,2.5307,2.5308,2.5308,2.5295,2.5294,2.5293,2.5292,2.5336,2.5338,2.534,0,0,0,0,0,0,0,0,0,0,0,0,0,2.518,2.5181,2.5266,2.5266,2.5267,2.5307,2.5308,2.5308,2.5295,2.5294,2.5293,2.5292,2.5335,2.5338,2.534,0,0,0,0,0,0,0,0,0,0,0,0,0,2.5219,2.5182,2.5266,2.5265,2.5265,2.5307,2.5308,2.5308,2.5295,2.5294,2.5292,2.5291,2.5334,2.5337,2.534,2.5385,0,0,2.5349,2.5351,0,0,0,0,0,0,0,0,2.5217,2.5222,2.5265,2.5265,2.5266,2.5294,2.5293,2.5334,2.5295,2.5284,2.5292,2.5291,2.5323,2.5327,2.5338,2.5387,2.5389,2.535,2.5351,2.5353,2.5354,0,0,0,0,0,0,0,2.5214,2.522,2.5282,2.5265,2.5266,2.5264,2.5268,2.5301,2.5311,2.5285,2.5284,2.5289,2.5323,2.5335,2.5339,2.539,2.535,2.5352,2.5354,2.5355,2.5484,2.5486,0,0,0,0,0,0,2.521,2.5218,2.5281,2.5283,2.5237,2.5267,2.5271,2.5287,2.531,2.5312,2.529,2.5288,2.533,2.5335,2.534,2.5398,2.5353,2.5356,2.5357,2.5482,2.5484,2.5486,0,0,0,0,0,0,2.5209,2.5216,2.5279,2.5251,2.5258,2.527,2.5287,2.5288,2.53,2.5314,2.5316,2.53,2.533,2.5336,2.5375,2.5399,2.5357,2.536,2.5481,2.5483,2.5485,2.5512,0,0,0,0,0,0,2.5206,2.5216,2.5232,2.5251,2.526,2.5312,2.5288,2.529,2.5305,2.5303,2.5324,2.5326,2.5329,2.5371,2.5378,2.5402,2.5362,2.5478,2.5482,2.5484,2.5509,2.5515,2.552,0,0,0,0,0,2.5203,2.5237,2.5232,2.524,2.528,2.5314,2.5319,2.5321,2.5306,2.5324,2.5334,2.5325,2.5395,2.5375,2.5383,2.5409,2.5477,2.5481,2.5484,2.5506,2.5513,2.552,0,0,0,0,0,0,2.5219,2.5239,2.5235,2.5275,2.5293,2.5311,2.5333,2.5328,2.5351,2.5348,2.535,2.5355,2.5396,2.5406,2.5383,2.5456,2.5434,2.544,2.5448,2.5455,2.546,2.5458,2.5364,0,0,0,0,0,2.5228,2.5252,2.5268,2.5303,2.5312,2.5321,2.5336,2.5336,2.5355,2.5362,2.5375,2.5394,2.5421,2.5438,2.5463,2.551,2.5517,2.5532,2.5537,2.5542,2.5547,2.5577,2.5585,2.5498,2.5498,2.5498,0,0,2.5245,2.5259,2.5274,2.5307,2.532,2.5348,2.5327,2.5356,2.5377,2.5367,2.5406,2.5416,2.5438,2.5482,2.5502,2.5492,2.5573,2.5547,2.555,2.5553,2.5581,2.559,2.5597,2.5501,2.55,2.55,0,0,2.5291,2.5303,2.5334,2.5349,2.5371,2.5377,2.5385,2.5405,2.5412,2.5451,2.5445,2.5471,2.5515,2.5532,2.5547,2.5604,2.5599,2.5612,2.5641,2.567,2.5677,2.5683,2.5707,2.5715,2.5617,2.5617,2.5617,0,2.531,2.535,2.5351,2.5382,2.5398,2.5391,2.5424,2.5439,2.5468,2.548,2.5467,2.5527,2.554,2.5591,2.5605,2.5616,2.5627,2.561,2.5676,2.5682,2.5688,2.571,2.5719,2.5619,2.5619,2.5618,2.5618,0,2.5374,2.5402,2.5425,2.5454,2.5473,2.5504,2.5513,2.5532,2.5532,2.554,2.5582,2.5599,2.563,2.5641,2.564,2.5693,2.5686,2.5675,2.5653,2.5698,2.5719,2.5727,2.5621,2.5621,2.562,2.562,0,0,2.5429,2.5461,2.547,2.5485,2.551,2.5533,2.5566,2.5596,2.5613,2.5634,2.5664,2.5704,2.5695,2.5712,2.5714,2.5739,2.5787,2.5725,2.5726,2.5738,2.585,2.586,2.587,2.5784,2.5785,2.5787,2.5849,0,2.5479,2.5537,2.5541,2.5594,2.5622,2.5618,2.5647,2.5667,2.5677,2.5703,2.5714,2.5744,2.5728,2.5739,2.5763,2.5776,2.581,2.5771,2.5814,2.5815,2.581,2.588,2.589,2.5948,2.5857,2.5859,2.586,0,2.5545,2.5569,2.5625,2.565,2.5662,2.5688,2.5718,2.5743,2.5767,2.5772,2.5793,2.5792,2.5829,2.5806,2.5859,2.5833,2.585,2.586,2.5862,2.5868,2.5841,2.589,2.5966,2.5976,2.5872,2.5871,2.587,0,2.5584,2.563,2.5671,2.5683,2.5712,2.5732,2.5745,2.5767,2.5786,2.5813,2.5826,2.5856,2.5874,2.5898,2.5907,2.5889,2.5961,2.5937,2.5969,2.5969,2.5985,2.5984,2.6068,2.5993,2.5993,2.5993,2.5993,0,2.564,2.5675,2.5689,2.5714,2.5755,2.576,2.5801,2.5813,2.5834,2.5863,2.5861,2.5889,2.5898,2.5928,2.5935,2.598,2.5987,2.5994,2.5996,2.5996,2.5995,2.6009,2.6006,2.5995,2.5995,2.5994,2.5994,0,2.569,2.5701,2.5745,2.577,2.5777,2.5806,2.5829,2.5854,2.5864,2.5902,2.5911,2.5928,2.5963,2.5975,2.6017,2.6022,2.6076,2.6073,2.6068,2.6069,2.6101,2.6099,2.6197,2.6212,2.6126,2.6127,2.6127,0,2.5727,2.5754,2.5782,2.5802,2.5816,2.5847,2.5867,2.5875,2.5896,2.5928,2.5951,2.5986,2.6015,2.6073,2.609,2.6124,2.6123,2.6156,2.6128,2.6128,2.6127,2.6126,2.6131,2.6161,2.6162,2.6163,2.6163,0,2.5791,2.5796,2.5824,2.5856,2.588,2.5905,2.593,2.5946,2.5958,2.5982,2.6019,2.6042,2.6087,2.6124,2.6159,2.6174,2.6173,2.6172,2.6182,2.6182,2.6179,2.6184,2.6084,2.617,2.6169,2.6169,2.6168,2.6168,2.5837,2.5863,2.5888,2.5921,2.594,2.5964,2.5991,2.6005,2.6036,2.6073,2.6076,2.6117,2.6144,2.6191,2.6209,2.6243,2.6234,2.6247,2.6251,2.6254,2.6259,2.6173,2.6249,2.6249,2.6249,2.6248,2.6248,0,2.5904,2.592,2.5951,2.5986,2.6013,2.6008,2.6036,2.6059,2.6095,2.612,2.615,2.6194,2.6231,2.6251,2.6289,2.6312,2.6312,2.6322,2.6321,2.6326,2.6263,2.6252,2.6321,2.6321,2.6321,2.6321,2.6321,2.6321,2.5942,2.5986,2.5994,2.6049,2.6066,2.6106,2.6123,2.6146,2.6167,2.6216,2.6247,2.626,2.6285,2.6324,2.6359,2.6364,2.6379,2.639,2.6395,2.6337,2.6329,2.6322,2.6312,2.6393,2.6393,2.6456,2.6456,2.6457]},{"header":{"parameterUnit":"m.s-1","parameterCategory":1,"la1":30.2991,"la2":30.254,"lo1":-89.0895,"lo2":-89.0444,"dy":0.0017,"dx":0.0017,"nx":28,"ny":28,"refTime":"2024-10-14T21:00:00:Z","depth":0,"parameterNumber":3,"parameterNumberName":"V-component_of_WINDS"},"data":[0,0,0,0,0,0,0,0,0,0,0,0,0,0,0,0,0,0,0,0,0,0,0,0,0,0,0,0,0,0,0,0,0,0,0,0,0,0,0,0,0,0,0,0,0,0,0,0,0,0,0,0,0,0,0,0,0,0,-1.2548,-1.2548,0,-1.2565,-1.2565,-1.2565,-1.2611,-1.2612,-1.2613,-1.2614,-1.2631,-1.263,-1.263,0,0,0,0,0,0,0,0,0,0,0,0,0,-1.2556,-1.2556,-1.2548,-1.2548,-1.2548,-1.2565,-1.2565,-1.2566,-1.2611,-1.2612,-1.2613,-1.2614,-1.2631,-1.263,-1.263,0,0,0,0,0,0,0,0,0,0,0,0,0,-1.2561,-1.2556,-1.2548,-1.2573,-1.2575,-1.2565,-1.2565,-1.2566,-1.2611,-1.2612,-1.2614,-1.2615,-1.2631,-1.263,-1.263,-1.2596,0,0,-1.2628,-1.2627,0,0,0,0,0,0,0,0,-1.2561,-1.2561,-1.2569,-1.2571,-1.2574,-1.2588,-1.2575,-1.2576,-1.261,-1.2597,-1.2614,-1.2616,-1.2615,-1.2616,-1.2616,-1.2597,-1.2598,-1.2628,-1.2627,-1.2627,-1.2627,0,0,0,0,0,0,0,-1.256,-1.256,-1.2555,-1.2569,-1.2572,-1.2584,-1.2586,-1.2575,-1.2598,-1.2599,-1.2602,-1.2603,-1.2617,-1.2616,-1.2617,-1.2598,-1.2628,-1.2627,-1.2627,-1.2626,-1.2557,-1.2556,0,0,0,0,0,0,-1.2556,-1.2559,-1.2554,-1.2555,-1.2571,-1.2583,-1.2585,-1.2582,-1.2598,-1.2602,-1.2602,-1.2605,-1.2617,-1.2617,-1.2617,-1.2583,-1.2627,-1.2626,-1.2626,-1.2559,-1.2557,-1.2556,0,0,0,0,0,0,-1.2556,-1.2555,-1.2553,-1.2558,-1.2559,-1.2581,-1.2577,-1.2581,-1.2581,-1.2601,-1.2605,-1.2597,-1.2618,-1.2618,-1.2602,-1.2584,-1.2626,-1.2625,-1.256,-1.2558,-1.2556,-1.251,0,0,0,0,0,0,-1.2556,-1.2555,-1.2541,-1.2558,-1.2559,-1.2537,-1.2575,-1.258,-1.258,-1.2584,-1.2597,-1.2601,-1.2619,-1.2603,-1.2602,-1.2583,-1.2625,-1.2562,-1.2559,-1.2557,-1.2513,-1.2507,-1.2501,0,0,0,0,0,-1.2556,-1.2526,-1.2541,-1.254,-1.2542,-1.2536,-1.2536,-1.2558,-1.2578,-1.2566,-1.2579,-1.2601,-1.2586,-1.2601,-1.26,-1.2581,-1.2563,-1.256,-1.2557,-1.2516,-1.2508,-1.2501,0,0,0,0,0,0,-1.2506,-1.2529,-1.2545,-1.2519,-1.2525,-1.2543,-1.2528,-1.2548,-1.2548,-1.2552,-1.2579,-1.2582,-1.2563,-1.257,-1.2587,-1.2552,-1.2578,-1.2575,-1.2548,-1.254,-1.2534,-1.2533,-1.2624,0,0,0,0,0,-1.2492,-1.2485,-1.2505,-1.2481,-1.2483,-1.2505,-1.2503,-1.252,-1.2527,-1.253,-1.2542,-1.2548,-1.2546,-1.2543,-1.2541,-1.2515,-1.252,-1.2501,-1.2495,-1.249,-1.2487,-1.2478,-1.2471,-1.2545,-1.2545,-1.2545,0,0,-1.2463,-1.2475,-1.2468,-1.2471,-1.2478,-1.2471,-1.2507,-1.2497,-1.2493,-1.2528,-1.2515,-1.2524,-1.2533,-1.2513,-1.2505,-1.2518,-1.2468,-1.2486,-1.2482,-1.2481,-1.2474,-1.2467,-1.246,-1.2543,-1.2543,-1.2544,0,0,-1.2407,-1.2414,-1.2396,-1.2403,-1.2414,-1.2429,-1.2425,-1.2441,-1.2449,-1.2437,-1.2464,-1.246,-1.2453,-1.246,-1.2463,-1.2414,-1.2436,-1.2413,-1.238,-1.2371,-1.2365,-1.236,-1.2346,-1.234,-1.241,-1.2409,-1.2409,0,-1.2369,-1.236,-1.2384,-1.2374,-1.2376,-1.241,-1.2394,-1.2399,-1.2408,-1.2409,-1.2425,-1.2421,-1.2429,-1.2413,-1.2402,-1.2401,-1.2399,-1.2412,-1.2364,-1.2359,-1.2355,-1.2342,-1.2336,-1.2407,-1.2407,-1.2407,-1.2408,0,-1.2315,-1.2308,-1.2293,-1.2303,-1.2303,-1.2289,-1.2314,-1.2311,-1.2329,-1.2343,-1.2332,-1.2343,-1.2347,-1.2344,-1.236,-1.2331,-1.234,-1.2359,-1.2387,-1.2345,-1.2333,-1.2328,-1.2403,-1.2404,-1.2405,-1.2405,0,0,-1.2225,-1.2253,-1.2247,-1.2254,-1.227,-1.2266,-1.2255,-1.226,-1.2258,-1.2264,-1.2258,-1.2254,-1.2274,-1.2276,-1.2294,-1.2285,-1.2251,-1.2307,-1.2307,-1.2298,-1.2224,-1.2211,-1.2204,-1.2265,-1.2264,-1.2263,-1.2224,0,-1.2175,-1.2159,-1.2183,-1.2162,-1.2158,-1.2192,-1.2183,-1.2193,-1.2207,-1.2207,-1.2222,-1.222,-1.2244,-1.2247,-1.224,-1.2256,-1.2237,-1.2259,-1.2261,-1.2261,-1.2259,-1.2198,-1.2183,-1.2146,-1.222,-1.2219,-1.2218,0,-1.2113,-1.2119,-1.2098,-1.212,-1.2119,-1.2111,-1.2119,-1.2118,-1.2131,-1.2142,-1.2147,-1.2169,-1.2163,-1.2189,-1.2182,-1.2197,-1.2199,-1.2208,-1.2207,-1.2209,-1.2238,-1.2201,-1.2134,-1.2129,-1.2211,-1.2211,-1.2212,0,-1.2055,-1.2057,-1.2046,-1.205,-1.2074,-1.2068,-1.2078,-1.2093,-1.2095,-1.2102,-1.2105,-1.2111,-1.2114,-1.2119,-1.2143,-1.2159,-1.2134,-1.2162,-1.2145,-1.2145,-1.2139,-1.2139,-1.2074,-1.2137,-1.2137,-1.2137,-1.2137,0,-1.1997,-1.1983,-1.202,-1.2013,-1.2001,-1.2029,-1.2016,-1.2029,-1.2043,-1.204,-1.2069,-1.2067,-1.2097,-1.2099,-1.2117,-1.2111,-1.2111,-1.2122,-1.2127,-1.212,-1.2119,-1.2123,-1.2127,-1.2136,-1.2136,-1.2136,-1.2137,0,-1.1928,-1.1952,-1.1943,-1.1968,-1.1974,-1.1964,-1.1986,-1.1981,-1.1999,-1.1996,-1.1997,-1.2023,-1.2027,-1.2052,-1.206,-1.2073,-1.206,-1.2069,-1.2056,-1.206,-1.2043,-1.2046,-1.1979,-1.1974,-1.2038,-1.2038,-1.2037,0,-1.1891,-1.1882,-1.1907,-1.1908,-1.1917,-1.1918,-1.1922,-1.195,-1.1953,-1.197,-1.1965,-1.1971,-1.1977,-1.1982,-1.2003,-1.2011,-1.2022,-1.1998,-1.2023,-1.2018,-1.2025,-1.2026,-1.2027,-1.1993,-1.1992,-1.1992,-1.1991,0,-1.1823,-1.1836,-1.184,-1.185,-1.1854,-1.1863,-1.1873,-1.1872,-1.1905,-1.1907,-1.1912,-1.1917,-1.1928,-1.1935,-1.1947,-1.1958,-1.1981,-1.1983,-1.1981,-1.1974,-1.1968,-1.1974,-1.2044,-1.1985,-1.1985,-1.1986,-1.1986,-1.1987,-1.1771,-1.1766,-1.1784,-1.1789,-1.18,-1.181,-1.1809,-1.1827,-1.1832,-1.1844,-1.1861,-1.1864,-1.1881,-1.19,-1.191,-1.1914,-1.1927,-1.1922,-1.1921,-1.192,-1.1918,-1.1966,-1.1916,-1.1917,-1.1917,-1.1917,-1.1917,0,-1.1706,-1.1721,-1.1725,-1.174,-1.1745,-1.1767,-1.1781,-1.1784,-1.1786,-1.1801,-1.1808,-1.1816,-1.1824,-1.1846,-1.1857,-1.1856,-1.1867,-1.1858,-1.186,-1.1863,-1.1904,-1.1907,-1.185,-1.185,-1.185,-1.185,-1.185,-1.185,-1.1674,-1.1668,-1.1684,-1.1686,-1.17,-1.1705,-1.1711,-1.1722,-1.1734,-1.1742,-1.1749,-1.1764,-1.1783,-1.1796,-1.1805,-1.1812,-1.1816,-1.1804,-1.1814,-1.1853,-1.1859,-1.1865,-1.1868,-1.1803,-1.1803,-1.1772,-1.1772,-1.1772]}]]